Wetbulb
68.19 67.62 66.29 66.08 65.28 64.48 64.02 64.26 64.04 63.63 63.18 63.63 62.90 62.65 62.35 61.68 61.32 60.73 61.27 61.80 62.01 63.05 64.59 65.43 65.34 65.13 64.72 65.60 66.01 66.23 65.67 65.29 62.77 61.24 61.50 60.69 59.56 59.26 59.33 59.47 59.58 59.10 59.56
67.84 67.54 65.98 65.90 65.03 63.92 63.31 64.72 63.87 63.29 63.04 62.50 62.12 62.16 61.82 61.42 60.72 59.82 60.87 61.13 60.57 60.44 61.60 63.79 63.41 65.00 64.56 64.90 65.10 64.87 65.28 65.76 64.11 59.61 59.87 58.65 57.84 58.14 57.92 57.72 57.65 58.32 58.36
66.94 66.61 65.43 65.41 64.20 63.38 63.27 63.98 63.53 63.04 62.08 61.49 61.18 61.03 61.37 60.86 59.69 58.88 58.10 57.60 57.52 57.78 59.91 61.47 62.35 63.31 62.28 61.78 61.42 61.34 61.34 62.25 64.49 60.53 58.12 58.76 57.74 57.74 56.31 56.31 55.71 55.51 56.87
66.87 66.05 64.69 64.01 63.98 63.81 63.42 63.73 63.22 62.25 60.89 60.19 59.03 58.87 59.51 60.37 59.56 58.07 56.99 56.13 56.27 56.47 57.69 59.27 59.86 60.54 61.44 62.18 61.25 59.97 59.31 62.22 62.03 59.95 58.22 57.52 57.66 57.04 56.17 54.12 53.15 54.07 52.80
67.12 66.00 64.49 64.27 64.29 63.78 63.30 63.57 62.25 61.24 60.19 59.16 57.58 56.76 56.92 58.30 59.69 57.33 56.55 55.22 54.58 54.62 54.98 55.80 57.71 60.55 61.76 61.29 60.57 59.74 57.98 58.74 59.89 59.04 58.04 58.12 56.83 55.22 54.60 54.68 52.85 52.52 52.92
67.23 66.54 65.64 64.98 64.26 63.47 63.02 62.89 61.25 59.99 58.79 58.07 55.90 54.87 54.65 56.79 57.73 60.20 58.25 56.39 55.93 54.26 52.35 51.53 52.91 54.09 55.53 58.43 59.57 60.47 58.28 55.53 56.75 57.55 57.09 56.47 56.43 55.65 54.54 53.50 52.22 52.01 50.44
67.03 67.44 65.95 65.90 64.84 63.86 62.91 62.06 60.30 59.02 57.79 56.31 54.35 53.45 52.55 54.00 56.17 56.64 58.31 56.03 53.77 52.50 51.60 50.38 50.66 51.14 50.17 49.08 53.81 55.08 56.04 58.05 58.99 58.23 56.63 56.73 57.42 56.21 54.92 53.23 53.14 54.09 51.86
66.67 67.50 66.40 66.30 65.49 64.88 63.72 63.08 60.64 58.48 56.99 55.98 53.25 52.03 51.47 51.53 54.21 53.88 55.45 53.15 52.24 51.57 51.19 50.75 49.33 48.56 47.87 46.63 46.12 46.18 46.49 49.93 49.81 52.31 52.80 53.85 57.79 57.87 56.71 56.11 54.60 51.70 52.93
64.77 66.66 68.00 66.83 65.76 64.78 63.49 62.49 62.20 58.95 58.10 56.79 54.49 51.77 50.88 49.62 50.93 52.78 51.96 49.36 48.46 47.98 48.84 49.53 50.52 50.77 52.48 51.22 47.56 45.90 45.78 46.23 50.90 53.18 52.93 52.64 54.11 54.74 54.09 52.91 51.17 50.91 51.50
63.33 63.81 64.65 67.10 65.99 64.53 63.36 62.74 61.90 60.76 58.84 56.57 53.90 52.15 51.99 50.69 48.87 51.57 51.25 49.26 47.58 47.18 46.27 45.48 50.90 49.93 51.70 50.30 48.93 48.45 46.68 45.92 47.46 47.53 47.43 46.68 47.54 49.14 51.35 49.27 53.55 50.83 51.33
60.79 61.78 61.60 62.04 66.03 64.94 63.71 63.62 61.81 59.01 55.85 53.53 51.32 50.84 50.30 49.19 49.29 49.43 50.57 50.49 49.35 47.76 46.50 44.31 43.57 47.40 45.92 46.55 47.34 45.74 44.85 44.23 46.54 46.83 44.94 42.71 42.99 44.68 45.04 44.68 44.63 47.96 49.16
60.92 60.03 58.04 58.58 62.81 64.47 63.87 62.10 59.86 57.29 54.31 51.80 50.80 51.11 51.20 50.18 47.34 47.12 49.05 50.83 51.18 47.85 47.87 44.85 42.18 43.97 43.35 43.81 44.05 45.28 45.89 44.57 42.74 43.63 43.00 40.82 40.72 41.87 44.31 45.17 44.94 44.81 44.61
58.74 57.14 56.05 56.21 57.36 62.70 62.26 60.01 57.88 56.15 54.03 52.58 51.59 50.90 50.61 49.63 48.52 46.50 46.82 48.32 49.39 48.14 46.56 46.19 46.00 43.65 43.42 43.27 45.85 45.22 44.16 40.99 39.97 39.11 38.19 38.20 38.02 38.84 42.54 43.92 45.62 44.03 43.67
55.49 55.71 55.17 53.88 55.00 55.55 56.29 57.54 56.59 54.96 53.66 52.34 51.19 50.87 51.27 51.02 49.67 48.15 46.81 45.65 47.21 46.30 46.85 44.51 45.72 44.52 45.75 44.88 44.37 42.23 41.92 39.83 40.16 38.88 38.60 38.57 39.17 38.28 37.76 38.59 40.12 42.76 43.17
52.48 52.18 51.60 51.47 51.12 49.72 48.14 50.53 52.31 51.08 53.48 52.98 52.12 52.20 51.24 48.88 46.99 42.57 44.80 46.52 46.74 44.90 45.05 42.31 42.31 42.19 41.23 41.04 41.71 40.19 39.76 39.11 38.65 37.13 36.65 37.14 36.13 35.66 35.95 37.42 37.01 37.61 41.51
52.10 51.91 51.34 50.88 50.73 50.48 50.14 48.21 45.42 44.95 44.49 45.17 46.34 48.56 46.66 45.21 41.42 40.59 40.29 40.27 40.50 42.49 40.98 40.62 41.12 42.42 42.25 42.33 41.62 39.63 38.90 39.95 38.14 37.58 36.50 36.05 36.56 36.20 35.85 35.53 36.75 36.31 37.03
52.33 51.47 51.00 50.43 50.33 49.48 49.47 48.93 46.66 43.90 41.69 40.31 42.03 41.87 42.98 42.45 40.44 39.77 39.18 39.58 39.61 40.16 38.97 38.21 39.82 39.51 39.04 39.55 40.41 39.47 38.46 37.19 36.34 38.76 36.51 36.36 37.72 37.79 37.33 36.93 36.82 36.73 35.90
49.09 48.88 47.96 47.47 46.93 46.03 45.95 45.02 44.46 44.19 43.35 41.53 40.81 40.08 39.27 39.35 39.38 38.71 38.61 39.66 39.65 40.23 37.00 38.61 40.37 40.28 39.75 39.54 39.23 39.02 39.02 38.22 39.16 37.96 37.62 38.26 37.70 38.14 37.15 36.91 37.10 35.42 34.17
49.49 48.65 48.19 47.71 46.79 46.34 44.93 43.54 43.08 42.57 41.78 40.74 38.86 38.94 38.26 38.12 37.93 37.80 38.12 38.37 39.16 39.92 40.01 40.18 41.17 41.33 40.32 39.72 39.58 39.10 38.76 38.50 37.74 37.25 37.18 37.08 37.01 37.13 37.50 36.90 37.23 40.36 38.46
50.73 52.02 50.97 49.31 48.21 47.00 45.69 44.09 43.31 41.77 40.83 39.92 39.01 38.30 37.68 37.57 36.94 36.35 36.40 36.63 37.04 38.12 39.25 40.14 41.09 42.25 41.23 40.86 40.36 39.19 38.67 38.81 38.58 37.92 38.20 38.02 37.69 37.09 37.73 38.25 37.42 36.67 36.24
53.34 52.29 53.04 51.04 49.94 49.00 47.56 46.13 45.34 44.08 42.61 41.19 40.25 39.85 39.26 38.26 37.73 37.41 38.32 38.26 38.35 38.93 39.93 40.95 40.66 40.84 41.78 41.66 40.36 40.21 40.04 40.05 39.02 39.13 39.02 39.07 38.45 38.30 38.32 38.27 37.92 37.62 36.89
47.17 48.59 47.64 47.19 50.46 48.88 49.84 48.38 46.67 46.10 44.89 43.67 42.46 42.01 39.52 38.89 38.27 39.18 39.79 40.55 41.43 41.37 41.50 41.48 39.54 38.73 38.67 40.50 41.59 41.36 40.81 40.30 40.03 39.76 39.30 38.78 38.35 38.46 38.54 38.32 38.24 37.46 37.03
44.47 44.68 44.93 45.39 45.55 46.15 46.09 46.64 45.88 46.02 45.98 45.98 45.02 43.99 41.85 41.40 41.62 40.13 40.74 41.41 41.49 41.49 41.38 41.29 40.24 40.38 40.75 40.27 39.55 38.76 37.42 37.70 38.15 38.82 38.68 39.05 38.77 39.16 38.69 37.85 37.62 36.85 36.35
46.68 46.83 46.95 45.95 45.56 46.80 47.06 46.66 47.00 45.87 46.94 46.66 44.44 43.54 42.27 42.04 41.74 43.19 42.92 45.08 44.45 41.80 40.90 39.59 37.63 36.56 36.54 35.52 34.98 34.07 33.40 33.22 34.42 35.60 37.03 38.28 37.99 38.01 37.65 37.41 38.31 38.12 37.97
48.62 47.80 47.72 47.45 47.71 47.24 47.19 48.94 49.32 46.75 46.59 44.01 43.15 43.84 44.54 44.74 45.24 45.39 42.85 41.02 38.78 36.41 35.47 35.87 35.28 34.50 32.69 32.00 31.54 30.70 30.63 30.04 32.24 33.19 34.95 37.29 38.25 38.87 38.71 37.71 36.94 36.78 36.88
47.50 47.47 46.63 46.57 45.60 45.75 46.99 46.65 45.28 45.89 45.74 46.27 45.79 43.56 42.92 43.05 42.92 43.04 40.79 39.03 36.32 33.66 32.00 31.75 32.17 31.79 31.26 30.65 30.96 30.79 30.07 29.60 30.55 31.32 35.35 36.39 36.24 36.07 36.45 37.30 38.75 39.46 39.87
MSLP
1014.09 1014.65 1015.19 1015.87 1016.16 1016.32 1016.45 1016.62 1016.57 1016.36 1016.68 1016.53 1016.64 1016.37 1016.26 1016.28 1016.17 1015.73 1015.73 1015.63 1015.57 1015.48 1015.21 1015.02 1014.78 1014.68 1014.84 1014.97 1015.22 1015.39 1015.65 1015.96 1016.76 1017.89 1018.29 1018.82 1019.19 1019.37 1019.50 1019.69 1019.82 1019.85 1019.76
1015.18 1014.79 1015.27 1016.01 1016.15 1016.39 1016.65 1016.52 1016.62 1016.63 1016.93 1016.92 1017.08 1016.76 1016.83 1017.05 1016.99 1016.77 1016.62 1016.57 1016.49 1016.31 1015.98 1015.51 1015.45 1015.37 1015.42 1015.45 1015.47 1015.66 1015.82 1016.02 1016.55 1017.60 1018.38 1019.03 1019.41 1019.73 1019.94 1020.21 1020.40 1020.39 1020.35
1015.75 1015.31 1015.70 1016.44 1016.69 1016.80 1016.85 1016.92 1017.10 1017.07 1017.34 1017.42 1017.39 1017.29 1017.46 1017.70 1017.82 1017.67 1017.52 1017.48 1017.29 1017.04 1016.78 1016.50 1016.32 1016.10 1016.13 1016.17 1016.17 1016.23 1016.33 1016.37 1016.59 1017.44 1018.48 1019.20 1019.82 1020.24 1020.64 1020.85 1021.01 1020.94 1020.91
1015.40 1015.96 1016.21 1016.79 1016.68 1016.89 1016.87 1017.01 1017.42 1017.70 1017.97 1017.87 1017.96 1017.93 1018.08 1018.44 1018.50 1018.48 1018.32 1018.24 1018.10 1017.91 1017.71 1017.44 1017.20 1017.02 1016.87 1016.75 1016.75 1016.90 1016.93 1016.98 1017.33 1017.93 1018.64 1019.32 1019.87 1020.52 1020.76 1021.08 1021.32 1021.51 1021.59
1015.13 1015.52 1016.21 1016.60 1016.72 1016.96 1017.25 1017.42 1017.79 1018.08 1018.34 1018.47 1018.48 1018.56 1018.91 1019.09 1019.03 1019.03 1019.00 1018.97 1018.89 1018.79 1018.58 1018.36 1018.16 1017.88 1017.62 1017.46 1017.42 1017.63 1017.68 1017.79 1018.04 1018.43 1018.99 1019.49 1020.03 1020.61 1020.82 1021.20 1021.55 1021.77 1021.98
1014.83 1014.92 1015.55 1016.37 1016.92 1016.91 1017.34 1017.69 1018.04 1018.27 1018.64 1018.90 1019.22 1019.34 1019.37 1019.44 1019.41 1019.38 1019.34 1019.43 1019.54 1019.47 1019.42 1019.19 1018.96 1018.70 1018.46 1018.28 1018.24 1018.25 1018.22 1018.33 1018.59 1018.93 1019.39 1019.75 1020.12 1020.52 1020.92 1021.29 1021.67 1021.82 1022.09
1015.03 1015.55 1015.81 1016.56 1017.14 1017.57 1017.85 1018.01 1018.29 1018.60 1018.86 1019.22 1019.50 1019.71 1019.91 1019.88 1019.82 1019.83 1019.82 1019.87 1019.98 1020.05 1019.97 1019.86 1019.70 1019.55 1019.30 1019.12 1019.02 1018.92 1018.90 1018.84 1018.84 1019.08 1019.61 1020.00 1020.20 1020.41 1020.78 1021.26 1021.53 1021.68 1021.94
1015.13 1016.10 1016.37 1017.05 1017.35 1017.54 1017.91 1018.20 1018.60 1018.78 1018.96 1019.24 1019.70 1019.95 1020.12 1020.38 1020.46 1020.36 1020.35 1020.46 1020.62 1020.76 1020.69 1020.54 1020.44 1020.29 1020.04 1019.86 1019.88 1020.00 1020.00 1019.84 1019.85 1019.82 1019.97 1020.16 1020.11 1020.21 1020.51 1020.94 1021.31 1021.79 1022.03
1015.34 1015.88 1015.90 1016.68 1016.88 1017.28 1017.44 1018.16 1018.46 1018.47 1018.99 1019.20 1019.65 1020.17 1020.40 1020.58 1020.71 1020.77 1020.76 1020.95 1021.11 1021.24 1021.12 1020.91 1020.81 1020.78 1020.72 1020.61 1020.63 1020.96 1021.03 1020.89 1020.60 1020.50 1020.52 1020.55 1020.51 1020.71 1020.95 1021.17 1021.59 1021.76 1021.99
1014.64 1014.87 1015.51 1016.30 1016.51 1017.11 1017.66 1017.97 1018.32 1018.62 1019.02 1019.40 1019.81 1020.22 1020.53 1020.63 1020.73 1020.99 1020.96 1021.17 1021.56 1021.72 1021.67 1021.42 1021.14 1021.17 1021.23 1021.07 1021.12 1021.47 1021.68 1021.73 1021.29 1021.11 1021.21 1021.24 1021.29 1021.38 1021.33 1021.32 1021.50 1021.83 1021.91
1014.91 1015.54 1016.01 1016.24 1016.10 1016.42 1017.19 1017.79 1018.27 1018.85 1019.43 1019.96 1020.20 1020.47 1020.68 1020.82 1020.87 1020.95 1021.09 1021.23 1021.46 1021.72 1021.93 1021.95 1021.83 1021.57 1021.47 1021.32 1021.35 1021.49 1021.66 1021.72 1021.68 1021.72 1021.94 1022.07 1022.15 1022.17 1022.11 1022.06 1021.96 1021.99 1021.93
1016.02 1016.19 1016.43 1016.40 1016.18 1016.27 1016.83 1017.80 1018.41 1018.94 1019.74 1020.36 1020.71 1020.92 1021.05 1021.13 1021.16 1021.19 1021.20 1021.35 1021.43 1021.68 1021.95 1022.20 1022.37 1022.21 1022.12 1021.98 1021.85 1021.70 1021.46 1021.85 1021.99 1022.25 1022.55 1022.82 1022.74 1022.54 1022.31 1022.07 1021.91 1021.86 1021.84
1016.52 1016.92 1016.99 1016.80 1016.70 1016.56 1017.05 1017.90 1018.62 1019.38 1019.93 1020.46 1020.86 1021.32 1021.55 1021.55 1021.62 1021.59 1021.63 1021.64 1021.51 1021.72 1022.09 1022.38 1022.51 1022.52 1022.40 1022.33 1022.20 1022.12 1021.95 1022.18 1022.50 1022.87 1023.09 1023.16 1022.98 1022.81 1022.48 1022.12 1021.87 1021.90 1021.86
1017.21 1017.44 1017.45 1017.77 1017.64 1017.59 1017.83 1018.29 1018.88 1019.58 1020.30 1020.77 1021.12 1021.45 1021.87 1022.00 1022.19 1022.19 1022.20 1022.20 1022.05 1022.09 1022.39 1022.53 1022.53 1022.62 1022.67 1022.75 1022.63 1022.60 1022.67 1022.74 1022.71 1023.08 1023.27 1023.07 1022.99 1022.83 1022.64 1022.45 1022.38 1022.34 1022.33
1018.10 1018.20 1018.49 1018.53 1018.41 1018.69 1019.18 1019.50 1019.86 1020.22 1020.39 1020.87 1021.21 1021.49 1021.87 1022.27 1022.54 1022.57 1022.63 1022.73 1022.63 1022.55 1022.76 1022.80 1022.90 1023.04 1023.06 1023.15 1023.08 1023.13 1023.13 1023.15 1023.16 1023.18 1023.29 1023.31 1023.22 1023.06 1022.94 1022.81 1022.76 1022.73 1022.73
1018.91 1018.94 1019.12 1019.19 1019.32 1019.51 1019.92 1020.43 1020.68 1020.86 1020.98 1021.22 1021.42 1021.64 1022.10 1022.16 1022.40 1022.57 1022.72 1022.83 1022.77 1022.76 1023.20 1023.54 1023.46 1023.36 1023.34 1023.34 1023.44 1023.58 1023.51 1023.51 1023.47 1023.41 1023.42 1023.37 1023.48 1023.48 1023.38 1023.08 1022.89 1022.95 1022.80
1018.94 1019.13 1019.42 1019.70 1019.96 1020.28 1020.60 1020.86 1021.38 1021.72 1021.67 1021.86 1022.04 1021.94 1021.89 1022.49 1022.65 1022.68 1022.85 1022.97 1022.91 1022.95 1023.49 1023.64 1023.59 1023.60 1023.61 1023.57 1023.50 1023.58 1023.70 1023.55 1023.51 1023.58 1023.64 1023.66 1023.53 1023.34 1023.29 1023.23 1023.08 1023.01 1022.94
1019.19 1019.39 1019.77 1020.02 1020.30 1020.66 1021.01 1021.23 1021.44 1021.72 1022.16 1022.43 1022.36 1022.34 1022.56 1022.77 1022.82 1022.94 1022.99 1023.04 1023.38 1023.38 1023.55 1023.58 1023.52 1023.48 1023.46 1023.57 1023.57 1023.46 1023.46 1023.44 1023.44 1023.46 1023.53 1023.53 1023.48 1023.48 1023.34 1023.19 1023.07 1023.02 1022.93
1019.30 1019.83 1020.14 1020.48 1020.74 1020.86 1021.04 1021.35 1021.62 1021.94 1022.16 1022.36 1022.67 1022.74 1022.87 1022.91 1022.95 1023.06 1023.14 1023.25 1023.56 1023.63 1023.53 1023.45 1023.22 1023.15 1023.15 1023.18 1023.33 1023.47 1023.41 1023.42 1023.34 1023.31 1023.33 1023.39 1023.34 1023.31 1023.23 1023.12 1022.97 1022.85 1022.81
1019.27 1019.70 1020.13 1020.52 1020.86 1021.04 1021.07 1021.21 1021.54 1021.78 1022.12 1022.48 1022.69 1022.75 1022.80 1023.01 1023.07 1023.19 1023.17 1023.25 1023.45 1023.41 1023.20 1023.09 1022.85 1022.81 1022.74 1022.79 1022.94 1023.16 1023.25 1023.24 1023.21 1023.22 1023.08 1023.04 1023.01 1022.97 1022.96 1022.89 1022.80 1022.82 1022.67
1019.50 1019.70 1019.85 1020.28 1020.65 1020.84 1021.01 1021.12 1021.34 1021.69 1021.92 1022.02 1022.17 1022.13 1022.32 1022.78 1022.97 1023.05 1022.94 1022.96 1022.99 1022.93 1022.75 1022.65 1022.61 1022.74 1022.75 1022.54 1022.63 1022.83 1022.96 1022.98 1023.07 1023.02 1022.92 1022.70 1022.61 1022.60 1022.34 1022.35 1022.34 1022.26 1022.29
1018.97 1019.26 1019.62 1019.76 1019.93 1020.28 1020.45 1020.65 1021.00 1021.20 1021.42 1021.58 1021.68 1021.80 1022.02 1022.50 1022.68 1022.70 1022.72 1022.69 1022.45 1022.37 1022.14 1022.14 1022.54 1022.62 1022.62 1022.78 1022.78 1022.94 1023.13 1023.10 1022.95 1022.82 1022.65 1022.54 1022.38 1022.15 1022.04 1021.92 1021.75 1021.75 1021.77
1018.25 1018.74 1019.11 1019.17 1019.33 1019.69 1020.08 1020.26 1020.53 1020.66 1020.72 1020.71 1020.89 1021.29 1021.62 1021.89 1022.10 1022.24 1022.34 1022.19 1022.02 1021.87 1021.84 1021.97 1022.34 1023.01 1023.16 1023.39 1023.41 1023.38 1023.48 1023.51 1023.30 1022.86 1022.58 1022.30 1021.99 1021.75 1021.52 1021.41 1021.41 1021.48 1021.28
1017.74 1018.15 1018.60 1018.85 1019.12 1019.53 1019.88 1020.02 1019.94 1020.03 1020.16 1020.29 1020.50 1020.90 1021.28 1021.53 1021.63 1021.81 1021.82 1022.19 1022.38 1022.69 1022.66 1023.04 1023.29 1023.64 1023.89 1024.03 1023.98 1023.95 1023.85 1023.59 1023.24 1022.93 1022.56 1022.22 1021.85 1021.47 1021.31 1021.21 1020.88 1020.50 1020.46
1017.28 1017.70 1018.07 1018.63 1019.13 1019.49 1019.52 1019.64 1019.80 1019.85 1019.96 1020.02 1020.29 1020.72 1021.01 1021.39 1021.73 1021.98 1022.43 1022.68 1023.14 1023.46 1023.65 1023.66 1023.76 1024.07 1024.28 1024.36 1024.35 1024.18 1023.99 1023.64 1023.32 1023.00 1022.57 1022.13 1021.86 1021.55 1021.31 1021.04 1020.77 1020.45 1020.20
1017.15 1017.64 1018.04 1018.46 1018.78 1019.08 1019.33 1019.57 1019.77 1019.83 1020.09 1020.47 1020.84 1021.21 1021.47 1021.77 1022.14 1022.56 1022.96 1023.31 1023.63 1023.92 1024.17 1024.29 1024.38 1024.46 1024.51 1024.57 1024.57 1024.45 1024.16 1023.81 1023.43 1023.00 1022.55 1022.24 1022.06 1021.90 1021.66 1021.26 1020.82 1020.38 1019.89
Wind_Speed
6 6 7 6 5 5 4 4 4 6 5 6 6 7 7 7 7 7 7 8 8 6 6 5 5 3 2 3 3 2 3 3 4 2 2 3 4 6 6 6 7 6 7
4 7 8 5 5 5 3 5 5 7 5 6 5 7 7 7 7 7 9 8 7 7 7 8 8 5 6 4 3 3 2 3 3 6 2 2 4 4 5 6 5 6 6
4 5 6 4 5 4 4 5 5 6 6 5 6 7 7 7 7 7 7 6 7 7 7 8 7 7 7 5 5 4 3 2 5 5 4 2 3 3 4 5 5 5 5
5 4 6 5 6 5 5 6 6 5 5 6 6 6 7 6 6 6 6 6 7 7 7 8 8 8 6 5 5 5 4 5 6 6 5 3 3 3 3 3 3 3 4
7 7 7 6 5 5 4 5 6 5 5 5 5 7 6 5 3 5 6 6 6 7 7 7 8 12 16 11 4 5 5 5 5 5 4 2 3 2 2 2 2 2 3
6 8 7 6 4 5 6 6 5 6 5 6 6 6 6 3 3 7 6 5 6 6 6 6 6 10 12 15 16 14 7 5 4 3 2 2 3 2 2 3 2 2 1
5 4 6 4 3 1 2 5 6 6 6 6 6 6 6 5 9 9 8 5 5 6 6 6 5 5 8 7 13 15 15 14 8 4 5 3 2 3 4 3 2 1 2
4 5 8 4 3 4 5 5 5 5 5 6 6 6 6 5 8 8 10 6 6 6 6 5 5 6 6 7 8 9 8 8 7 6 6 4 3 4 4 3 3 4 3
7 6 10 10 11 11 9 6 4 6 5 5 5 6 6 5 5 7 7 5 5 5 4 5 4 3 4 7 8 7 7 6 6 10 11 11 10 7 5 4 3 4 2
8 7 3 6 11 9 7 6 2 4 6 5 6 5 5 4 7 5 6 4 5 3 4 5 9 5 4 6 7 5 6 2 3 4 5 6 8 7 8 3 3 3 2
6 4 2 2 9 11 8 4 5 7 7 6 6 5 5 5 6 4 7 3 4 3 3 3 4 7 8 8 7 3 3 4 3 4 4 4 4 4 4 4 3 2 1
4 3 4 3 1 7 10 6 8 8 7 5 5 4 4 5 9 7 2 5 4 4 3 2 2 7 8 8 5 5 4 4 3 4 3 2 2 2 2 2 2 3 2
5 4 5 5 4 5 8 9 7 6 5 5 4 3 3 3 4 10 11 8 5 4 4 4 5 8 9 7 9 8 6 5 4 3 2 1 2 3 4 3 2 2 1
5 4 5 4 5 6 6 5 6 6 5 4 4 4 3 3 3 3 3 3 6 5 4 4 4 5 6 3 4 6 4 3 3 3 1 2 2 2 2 2 2 3 2
4 4 4 4 6 7 7 5 5 4 3 4 3 4 4 3 2 1 2 2 2 2 3 3 3 3 2 2 3 3 3 3 2 1 1 2 2 2 2 2 1 1 0
3 2 2 3 4 5 6 6 13 8 8 9 8 5 2 5 7 4 5 3 3 4 4 2 1 1 1 1 1 0 1 1 1 1 0 0 0 2 2 2 1 0 1
4 4 3 3 3 4 4 5 6 4 9 9 6 7 3 6 5 4 3 5 2 4 2 1 1 1 1 1 3 3 2 2 1 0 0 1 2 1 1 2 1 0 2
4 6 4 4 4 4 4 4 4 4 3 1 5 3 3 5 4 3 3 5 2 3 1 2 2 3 3 3 3 3 2 1 1 1 1 1 1 1 1 1 2 1 1
5 3 3 3 3 4 4 4 4 4 3 3 1 2 0 2 2 1 2 2 2 2 2 2 4 4 4 4 4 3 3 3 2 2 2 2 2 1 2 2 3 3 2
4 7 5 4 4 3 3 4 3 3 3 3 2 3 1 2 0 1 2 2 3 3 3 4 3 4 5 5 4 4 3 3 3 3 3 3 3 3 3 3 3 3 2
4 4 7 4 5 4 4 4 4 4 4 4 4 4 7 4 4 3 3 3 3 4 4 3 2 2 4 2 3 4 4 4 3 4 4 4 3 3 4 4 4 4 4
5 6 5 6 5 5 5 5 4 4 5 5 4 3 9 4 4 4 3 3 4 5 5 4 0 1 1 2 2 2 3 4 4 4 5 4 4 4 4 4 4 4 3
5 6 5 4 5 5 4 4 5 5 5 6 5 5 4 4 4 4 4 4 3 3 2 2 4 5 5 5 5 5 4 4 4 5 5 5 5 5 4 4 4 4 4
6 6 6 5 5 4 4 5 5 6 5 2 3 4 4 4 3 2 1 4 5 5 6 6 7 7 6 5 4 4 3 4 3 4 5 5 5 5 4 5 5 5 5
5 5 5 5 5 4 4 3 4 4 3 3 4 3 4 5 5 6 5 6 6 6 7 5 6 8 8 8 7 7 8 7 5 7 4 4 5 7 5 5 5 4 5
6 6 6 5 5 4 4 4 3 4 5 5 5 5 5 6 6 6 5 6 5 5 5 4 6 7 7 5 6 5 4 6 7 9 4 5 5 5 5 5 7 4 5
Wind_Direction
142 132 121 129 129 127 131 115 84 71 55 57 43 46 34 24 15 36 38 32 39 35 33 41 44 78 141 155 161 145 154 135 121 95 99 59 65 82 69 65 56 55 53
291 133 118 144 137 139 143 114 99 85 63 70 56 58 42 25 18 36 57 39 47 38 20 43 42 52 56 50 66 81 129 144 122 130 107 89 74 61 69 71 62 50 56
248 121 116 151 148 156 121 102 86 88 76 62 61 61 54 37 27 30 40 40 41 37 29 37 33 45 50 48 47 58 61 72 109 131 117 96 93 79 81 64 57 50 43
165 160 137 174 165 167 136 113 99 93 92 70 60 61 56 52 48 41 45 43 46 43 37 37 36 37 42 54 59 57 63 78 96 105 96 98 90 98 73 87 74 48 55
167 150 164 179 168 141 122 106 107 97 85 78 69 57 52 55 53 78 66 59 58 51 36 32 41 58 58 56 60 44 67 75 84 100 95 97 104 136 149 125 92 86 59
170 170 159 155 160 154 141 130 122 110 106 94 65 60 44 26 349 105 93 76 52 52 49 37 36 45 51 59 64 65 71 95 84 82 84 96 98 102 110 133 131 146 108
164 171 131 140 137 95 129 132 136 135 127 106 88 75 53 32 34 79 91 75 71 53 47 39 43 37 52 55 55 55 51 55 71 101 102 81 113 146 130 123 194 85 124
137 104 87 88 110 201 191 151 152 145 140 129 110 89 78 45 44 73 85 77 65 50 45 41 52 47 52 71 68 56 42 41 36 64 74 69 85 132 151 173 160 121 84
84 136 155 172 199 199 182 168 189 137 140 125 114 96 83 57 39 119 102 93 86 73 48 41 54 59 78 64 76 78 60 37 35 61 62 49 52 79 113 117 135 138 158
137 130 156 198 191 197 175 165 163 128 123 117 104 95 85 68 26 167 125 117 99 81 41 38 43 61 119 83 91 94 82 25 58 36 17 23 40 38 41 25 166 174 141
93 130 151 236 200 184 170 158 130 125 112 101 97 83 74 38 39 64 153 131 136 107 68 33 21 50 66 77 92 112 166 163 94 93 86 45 27 33 31 36 32 186 223
42 48 40 7 257 165 156 136 130 127 120 111 105 84 55 42 33 26 164 133 127 114 105 96 40 50 54 49 53 49 92 109 89 86 89 33 4 337 346 27 67 84 92
74 47 41 32 29 130 135 135 121 119 124 126 120 108 86 53 43 43 58 78 77 87 90 93 78 57 50 39 47 37 61 86 94 75 71 297 259 282 302 337 353 16 42
70 34 42 47 56 50 70 90 121 125 125 128 130 127 126 93 70 54 63 72 69 73 64 48 68 88 76 66 30 33 43 66 107 117 152 262 299 352 352 352 21 351 15
59 58 48 54 69 74 56 46 71 48 103 143 146 137 134 127 141 77 77 100 105 121 87 34 20 13 9 26 33 40 44 31 71 72 43 7 7 7 348 347 16 4 226
129 110 84 85 80 86 97 82 46 52 71 96 113 126 95 106 129 126 108 117 86 144 59 45 338 308 254 259 186 338 6 17 1 62 311 113 53 351 329 324 345 334 283
154 136 117 112 110 122 122 125 125 42 63 56 79 115 103 151 156 145 114 111 75 75 98 80 182 219 255 251 175 180 205 228 235 296 312 295 300 274 43 347 330 60 315
116 108 137 143 134 132 136 133 128 133 133 77 20 46 109 140 144 118 58 86 43 37 126 188 200 200 206 217 241 199 205 219 225 215 258 276 301 286 318 318 348 324 277
130 134 136 123 129 135 129 124 130 135 136 134 40 350 213 110 86 62 53 124 161 220 234 250 229 208 208 205 218 235 215 226 229 226 246 264 287 237 282 270 285 272 256
152 165 163 166 164 158 154 148 146 145 149 171 195 215 155 72 98 242 217 192 202 238 253 258 251 225 208 203 198 215 242 256 248 246 252 252 245 224 247 270 258 268 267
172 184 183 176 182 188 186 191 182 177 190 198 212 209 189 174 204 212 213 222 235 249 256 263 266 297 306 251 206 213 233 261 259 260 258 259 242 252 232 245 256 240 244
179 186 190 201 196 189 209 197 195 203 202 212 218 223 189 199 219 229 246 281 266 241 227 224 149 184 98 333 292 281 283 279 282 265 263 264 268 265 271 257 243 243 244
167 168 185 201 187 178 198 208 206 214 221 222 202 196 192 201 214 232 242 266 323 352 25 112 103 74 52 44 34 37 33 353 329 324 307 291 274 268 243 230 244 262 233
172 179 181 163 149 157 175 197 199 199 213 259 128 159 171 181 202 280 228 90 63 51 64 71 73 74 56 46 39 31 11 351 327 328 319 306 298 298 279 268 261 228 219
154 146 136 133 144 182 186 184 153 131 107 128 121 115 107 99 91 75 72 83 82 74 62 65 73 75 70 64 52 37 4 352 347 328 326 339 332 329 319 302 292 274 255
117 121 117 128 128 123 116 95 94 108 115 107 101 93 93 93 87 94 91 92 90 82 82 74 80 81 75 60 47 31 11 15 16 357 5 18 17 4 345 327 319 301 288